EHI
18 28 32 26 18 13 12 16 25 34 38 37 37 35 30 24 19 14 11 8 4 2 1 0 0 0 0 0 0 0 0 0 0 0 0 0 0 0 0 0 0 4 11
22 29 33 27 20 16 16 20 26 33 38 40 41 38 32 25 19 14 10 7 4 2 1 0 0 0 0 0 0 0 0 0 0 0 0 0 0 0 0 0 0 3 6
28 30 32 29 22 18 20 25 30 32 36 40 41 38 31 23 16 12 9 6 4 3 1 0 0 0 0 0 0 0 0 0 0 0 0 0 1 1 1 0 0 1 2
30 29 29 29 25 20 22 29 32 31 31 34 35 32 26 19 13 10 8 5 4 2 1 0 0 0 0 0 0 0 0 0 0 0 0 0 2 3 2 0 0 0 0
28 27 27 29 26 22 23 28 30 29 29 29 28 25 21 16 12 9 8 5 3 2 1 0 0 0 0 0 0 0 0 0 0 0 0 0 2 4 3 0 0 1 1
23 24 26 29 27 25 24 26 28 28 28 27 24 21 19 15 10 7 5 4 2 1 0 0 0 0 0 0 0 0 1 1 0 0 0 0 2 4 2 0 1 2 2
19 21 25 28 27 25 25 26 28 28 27 26 24 21 17 13 8 4 2 1 0 0 0 0 0 0 0 0 0 0 1 1 0 0 0 0 4 5 3 0 1 2 2
18 20 24 25 24 23 23 27 29 28 26 25 24 21 18 15 10 5 1 0 0 0 0 0 0 0 0 0 0 0 0 0 0 0 0 2 6 7 3 0 0 1 1
16 19 22 21 19 17 18 23 27 27 25 23 22 21 19 16 13 7 2 0 0 0 0 0 0 0 0 0 0 0 0 0 0 0 0 3 8 7 3 0 0 0 0
15 18 21 19 16 13 13 17 22 24 23 20 18 18 16 13 10 7 3 2 1 0 1 1 1 0 0 0 0 0 0 0 0 0 1 5 9 7 3 1 1 1 1
16 19 23 22 18 13 12 16 19 21 21 17 15 14 12 8 7 6 6 5 3 2 2 2 1 0 0 0 0 1 1 0 0 1 2 6 9 7 3 1 2 2 2
20 22 25 26 22 17 17 20 21 21 19 15 12 13 11 8 7 7 8 8 6 3 3 2 1 1 0 1 2 3 3 2 2 2 4 7 8 6 2 1 2 4 5
25 25 26 28 27 25 24 24 23 22 20 15 13 15 13 11 10 9 11 12 9 7 5 4 3 2 2 3 3 3 2 2 3 4 6 9 9 5 1 0 3 6 7
28 28 28 30 32 32 31 27 24 23 21 19 20 20 17 15 14 13 14 14 12 9 8 6 5 4 5 5 4 2 1 2 3 5 7 9 8 4 1 0 2 5 6
27 27 29 31 33 35 35 32 26 23 22 24 26 24 21 18 17 17 18 16 12 10 8 7 6 5 6 6 4 2 1 1 1 2 4 5 5 3 1 0 1 2 4
25 26 28 30 33 36 37 34 28 26 26 26 26 25 22 19 18 18 18 15 12 9 8 8 7 7 6 5 3 2 2 1 0 0 1 2 2 1 0 0 0 1 2
27 28 28 29 33 37 38 35 29 27 27 26 24 23 21 18 18 17 14 12 10 8 8 9 9 8 6 3 1 1 1 0 0 0 0 0 0 0 0 0 0 0 1
27 29 30 30 34 38 38 34 28 25 24 23 22 21 19 17 15 14 12 10 8 6 6 7 7 7 5 2 0 0 0 0 0 0 0 0 0 1 1 0 0 0 0
24 26 29 30 32 36 36 31 27 25 23 20 18 18 17 16 13 11 11 9 6 4 4 5 4 4 3 1 0 0 0 0 0 0 0 0 0 1 1 0 0 0 0
23 24 28 31 32 34 32 28 26 25 22 18 16 17 16 14 12 10 10 9 6 4 4 4 4 4 3 2 1 1 0 0 0 0 0 0 0 1 1 0 0 0 0
25 24 28 32 34 34 32 29 27 25 20 17 16 16 15 13 11 9 8 8 6 4 3 4 4 4 3 3 2 1 0 0 0 0 0 0 0 0 0 0 0 1 1
27 25 26 31 33 33 32 32 29 24 19 16 15 15 13 10 8 6 5 6 5 3 3 3 3 3 3 3 2 1 0 0 0 0 0 0 0 0 0 0 0 1 1
25 24 25 29 31 31 31 30 26 21 17 15 15 14 11 8 6 4 3 3 2 2 3 2 1 1 2 1 1 0 0 0 0 0 0 0 0 0 0 0 0 0 1
20 22 25 29 31 31 28 25 23 20 17 16 14 13 11 9 6 4 2 1 0 1 2 1 1 1 1 0 0 0 0 0 1 0 0 0 0 0 0 0 0 0 0
16 19 23 26 29 29 28 26 25 22 18 15 13 13 12 10 6 3 2 1 0 0 0 0 0 0 0 0 0 0 0 0 0 0 0 0 0 0 0 0 0 0 0
15 19 21 22 24 28 30 29 27 24 18 14 13 13 13 9 5 3 2 2 1 0 0 0 0 0 0 0 0 0 0 0 0 0 0 0 0 0 0 0 0 0 0
Wind_Speed
13 17 19 15 14 13 12 12 12 13 12 12 12 12 12 11 10 9 9 8 7 6 5 4 4 3 3 3 3 3 2 2 2 3 3 3 4 5 5 5 7 7 12
16 18 19 16 14 13 13 13 13 12 12 12 12 12 11 10 9 9 8 7 6 5 5 4 3 3 2 2 2 2 2 1 1 2 3 6 6 5 5 5 5 3 9
16 18 19 16 15 14 13 13 12 12 12 12 12 11 10 10 9 8 7 6 5 4 4 3 3 2 2 1 1 1 1 1 2 3 6 7 7 7 6 5 4 3 7
16 16 16 17 15 14 13 12 12 12 12 11 11 11 10 9 8 7 6 5 5 4 3 3 2 2 1 1 1 2 2 2 3 5 8 4 4 9 6 6 6 6 7
15 14 16 17 15 14 13 13 12 12 11 11 10 10 9 8 7 6 5 5 4 3 3 2 2 1 2 2 2 3 3 3 4 9 7 4 3 7 6 7 7 8 8
15 15 17 16 15 14 13 13 12 12 11 10 10 9 8 7 6 5 5 4 3 3 3 2 2 2 2 3 3 4 4 5 8 9 5 5 4 6 6 7 8 9 9
14 14 17 15 14 14 13 12 12 11 10 9 9 8 7 6 5 4 3 3 3 2 3 2 2 2 3 3 4 5 5 6 10 7 5 6 3 5 6 8 9 10 10
13 13 15 15 14 13 13 12 11 10 9 9 8 7 6 6 5 4 3 2 2 2 2 2 2 3 4 4 5 6 6 9 10 8 6 6 2 3 6 9 9 10 11
12 12 14 14 13 12 11 10 10 9 8 8 7 7 6 6 4 4 3 2 1 1 1 1 2 3 3 4 5 5 6 8 11 7 6 5 3 4 8 9 9 10 11
11 11 11 12 12 12 12 11 10 9 8 8 7 6 6 6 6 4 4 3 2 2 2 2 2 3 3 4 4 5 7 9 11 8 5 2 3 4 7 9 10 10 11
10 10 10 11 10 10 10 11 10 9 8 7 7 7 6 6 5 6 3 3 2 2 3 3 3 4 5 6 6 6 8 7 7 5 4 2 0 4 6 8 9 10 11
11 10 9 9 9 8 7 8 6 7 7 6 5 6 5 3 2 2 6 3 3 3 4 4 4 7 9 5 5 8 6 7 6 4 2 2 2 5 7 8 8 9 10
11 10 9 8 8 7 6 5 4 3 4 5 4 4 3 2 2 2 2 4 4 5 4 4 6 5 4 4 4 4 5 5 4 4 2 1 2 5 7 8 8 8 9
10 10 9 9 8 7 5 4 4 4 3 3 4 3 3 2 2 1 2 1 2 1 2 3 3 3 5 5 6 6 6 5 4 4 2 1 3 5 7 7 8 8 9
10 10 9 9 8 7 5 4 4 3 3 3 2 3 3 2 2 1 1 2 2 2 2 3 4 4 5 5 5 5 6 6 6 6 3 2 4 5 7 7 8 9 9
10 9 9 9 8 7 6 4 3 3 2 2 2 2 3 2 1 2 2 1 2 2 3 3 3 4 4 4 5 5 6 6 5 6 6 4 5 6 6 7 8 8 8
9 9 9 8 8 7 6 6 4 3 3 2 2 2 2 2 2 2 1 2 1 2 2 3 3 4 4 4 5 6 5 6 6 6 7 6 5 6 6 6 7 7 8
8 9 8 7 8 7 6 4 3 2 3 2 2 2 2 2 2 2 1 1 2 2 2 2 3 4 4 5 4 5 5 4 6 6 6 6 5 5 4 4 5 6 7
8 8 8 7 8 7 6 4 3 2 2 2 2 1 2 2 1 2 1 1 3 2 2 4 3 4 4 5 5 5 5 5 5 5 6 6 5 5 5 3 5 6 6
8 8 7 7 7 6 5 4 3 3 3 2 2 2 2 2 2 2 1 1 3 2 2 2 4 4 5 5 6 5 6 5 5 4 5 4 4 5 5 4 4 5 6
8 7 7 7 7 6 5 5 4 4 3 3 2 2 2 1 1 2 2 1 2 1 2 3 4 4 4 4 5 5 5 5 4 4 4 4 4 4 5 5 5 4 3
7 8 8 7 7 7 5 4 3 3 2 2 2 2 2 2 2 2 2 2 2 2 2 3 3 4 3 3 4 5 4 3 3 3 3 4 5 4 5 5 4 5 5
6 7 6 7 7 7 6 5 4 4 3 3 3 3 2 3 2 1 2 2 2 3 2 3 3 4 4 3 3 4 5 4 5 3 3 4 4 5 5 5 5 5 6
6 6 6 6 6 7 7 6 6 4 4 3 2 2 2 3 3 2 2 2 2 2 2 3 3 4 4 4 2 3 4 4 5 4 4 3 4 5 6 5 5 5 6
5 5 5 5 5 6 7 7 6 5 3 2 2 3 3 3 3 2 2 2 2 2 2 3 3 4 3 4 4 4 4 4 6 6 6 5 5 4 4 5 5 5 5
4 4 5 6 5 5 6 6 6 5 4 3 3 3 3 2 2 2 2 2 2 2 2 3 3 3 4 5 5 5 5 5 5 5 6 6 6 4 4 4 5 4 4
Wind_Direction
154 143 147 154 153 148 143 140 137 134 132 133 135 136 138 140 141 141 139 139 139 138 136 131 126 120 115 112 108 107 108 115 120 135 145 152 156 157 161 169 196 181 126
147 142 148 154 154 151 146 142 139 136 133 133 135 136 137 139 140 140 140 143 145 147 146 143 141 137 132 133 130 128 131 141 163 184 196 190 175 175 182 194 248 91 141
143 142 152 154 154 152 148 144 141 139 137 136 136 138 139 140 141 142 145 148 148 150 153 156 155 156 150 149 162 175 186 209 223 234 243 227 168 169 190 201 211 154 163
142 146 153 151 154 153 149 146 143 142 141 139 139 140 142 142 144 146 149 155 155 157 163 168 171 172 174 187 214 232 238 243 246 249 239 228 188 150 183 204 206 198 190
142 146 144 153 155 154 151 149 147 145 143 143 143 144 145 147 149 152 156 158 162 164 173 184 188 197 215 225 240 247 251 249 253 253 253 247 241 141 192 212 212 206 202
148 151 144 155 154 154 152 151 150 148 146 146 146 147 148 151 154 159 163 165 171 178 189 199 211 223 240 248 253 256 259 258 254 242 242 243 231 160 203 222 219 211 207
151 150 144 152 153 153 153 153 151 148 148 148 148 148 148 149 152 159 164 168 182 200 208 216 229 242 251 256 260 263 262 262 264 264 248 243 236 148 210 229 227 217 212
151 148 141 151 154 154 154 153 151 149 149 150 149 148 146 143 141 145 150 157 169 196 219 234 247 256 258 260 263 267 266 267 257 261 256 255 161 177 235 239 236 224 217
151 149 149 155 155 154 152 151 150 149 150 151 150 150 150 148 148 151 151 151 160 193 250 273 275 274 272 269 268 268 267 265 271 263 257 259 132 215 245 243 239 231 223
155 155 152 156 157 161 159 156 154 153 154 154 154 158 162 165 169 175 187 167 195 225 245 265 276 278 274 270 271 270 266 259 257 260 259 234 133 240 252 250 244 237 226
160 158 160 159 161 166 160 151 162 160 161 168 170 169 191 200 188 183 173 143 209 237 247 259 266 268 263 236 242 258 258 256 259 267 273 44 103 263 263 256 250 243 230
167 167 167 164 164 169 162 157 175 178 168 192 182 180 199 198 216 229 123 161 217 236 240 245 258 251 253 248 218 230 252 260 269 259 243 115 256 266 268 263 258 250 238
168 171 171 168 168 172 169 168 176 182 172 190 186 192 202 210 206 230 194 183 211 227 245 223 237 259 275 288 286 268 276 277 269 270 266 109 258 266 266 265 260 255 245
170 173 174 172 169 176 175 176 182 181 177 185 170 204 202 211 226 233 252 253 245 253 280 288 285 295 293 286 283 284 276 272 277 277 265 182 264 270 272 270 262 258 250
173 173 175 176 171 173 178 191 181 186 180 171 179 186 225 224 232 228 252 280 283 290 279 292 298 302 288 280 281 283 284 283 280 279 267 207 246 265 272 276 272 265 259
176 175 174 178 173 173 176 182 183 180 177 194 185 180 216 238 244 245 238 268 288 303 318 301 305 295 291 296 288 287 284 284 277 276 277 248 217 239 262 274 277 272 267
176 175 176 177 172 176 182 185 187 184 184 187 175 184 212 230 222 247 254 262 310 304 285 285 295 291 284 283 282 283 280 280 280 276 274 277 258 224 232 258 274 277 269
177 175 177 177 170 173 179 185 190 189 184 185 179 179 200 219 228 246 257 290 293 280 284 292 290 298 300 294 293 289 284 274 270 270 267 266 276 279 238 220 258 272 272
180 178 175 177 175 173 172 173 178 183 194 188 183 186 180 195 227 252 280 328 276 282 296 300 319 307 301 300 293 282 281 275 272 266 270 269 270 274 278 225 229 249 262
181 179 176 174 175 167 166 172 178 181 186 193 184 173 188 197 213 254 236 261 276 287 301 315 309 300 296 299 294 291 279 274 268 268 269 263 263 271 275 285 262 228 228
177 177 179 177 174 174 175 183 186 190 186 184 182 166 191 209 223 253 279 244 273 290 307 311 304 295 294 306 291 285 267 250 254 260 266 275 269 272 277 276 274 278 241
185 187 187 186 183 187 183 186 190 186 191 188 179 166 196 199 225 237 261 266 279 279 290 306 303 300 303 307 303 302 291 262 227 261 261 262 278 276 272 268 278 274 279
188 194 192 193 190 191 184 176 167 176 189 184 188 187 203 214 211 250 263 287 288 286 308 298 299 295 300 301 307 304 305 315 321 272 280 279 281 281 275 268 261 267 267
193 193 193 193 193 189 187 187 186 197 201 193 203 186 193 199 203 202 232 261 284 295 306 290 300 292 290 297 290 277 286 305 297 299 282 286 288 282 282 279 272 262 258
189 191 189 184 189 192 194 193 195 202 196 184 188 182 202 189 199 196 215 243 258 280 305 314 313 300 298 297 296 289 285 271 264 277 292 300 293 293 297 284 279 273 270
185 183 181 176 182 189 197 197 198 194 191 193 200 195 202 189 192 194 216 237 259 284 283 284 284 282 291 295 292 288 286 285 286 283 287 293 297 300 305 295 280 275 271